sat.trackr.live / text

‹ back to catalog

STARLINK-30214

NORAD 57411 · 2023-102H

PAYLOAD ACTIVE UNKNOWN

§ Identity

Operator
Country
US
Launch date
2023-07-20
Launch site
AFWTR
Launch vehicle
Mass (kg)
RCS (m²)

Purposes: comms

External: N2YO · Heavens-Above · Gunter

§ Orbital elements

Epoch: 2026-09-20T08:39:38.059488Z

Period
94.27 min
Inclination
43.0044°
Eccentricity
0.0001983
Mean motion
15.27583907 rev/d
Perigee alt
481.7 km
Apogee alt
484.4 km
Semi-major
6,861.2 km
B*
1.7685e-5
RAAN
229.0814°
Arg perigee
257.2763°
Mean anomaly
102.7867°
Rev number
17,596

§ Raw data

STARLINK-302141 57411U 23102H   26263.36085717  .00000224  00000+0  17685-4 0  99902 57411  43.0044 229.0814 0001983 257.2763 102.7867 15.27583907175960

JSON: /api/v1/satellites/57411 · /tle

For live sub-satellite position, see the globe view (requires WebGL).

§ Visibility from observer

Set your observer location to see the next 7 days of passes ≥ 10°. The values pass through the URL so the page stays shareable.

No JS? Fill the form by hand. The geolocation button needs JavaScript.